Location: Unspecified
(33.6682°S, 0.0000°E)
Time: 06:31:26
(UTC+00:00)

Vanguard 1 - Pass Details

Date: 04 July 2019
Orbit: 653 x 3830 km, 34.3° (Epoch: 15 July)

Event Time Altitude Azimuth Distance (km) Brightness Sun altitude
Rises 19:41:09 0° 268° (W) 5,058 14.8 -32.0°
Reaches altitude 10° 19:45:01 10° 282° (WNW) 4,515 14.3 -32.8°
Maximum altitude 19:54:30 23° 327° (NNW) 4,477 13.6 -34.7°
Drops below altitude 10° 20:07:55 10° 10° (N) 6,476 14.1 -37.5°
Sets 20:15:26 0° 22° (NNE) 7,818 14.5 -39.1°
